Dauntless Aviation
Greetings, Guest! To participate, [sign up for a free account] or [log in]
Airports Europe Germany
EDSW

Altdorf-Wallburg

Altdorf-Wallburg, GERMANY

Airport Info
Edit

Location

Latitude / Longitude: 48°16'11"N / 7°50'31"E
  48°16.188'N / 7°50.532'E
  48.2698 / 7.8422
Satellite photo at:
Airport distance calculator
From:
Weather Reports

METAR

LFST
18.2nm NW
LFST 252230Z AUTO 23004KT 9999 SCT039 SCT049 OVC074 12/11 Q1024
EDSB
32.3nm N
EDSB 252220Z VRB02KT 9999 BKN026 12/10 Q1024

TAF

EDTL
5.8nm NW
TAF EDTL 251400Z 2515/2524 VRB03KT 9999 SCT045
LFST
18.2nm NW
TAF LFST 251700Z 2518/2618 VRB02KT 9999 SCT030 BKN055 PROB40 TEMPO 2601/2609 3000 BR SCT006 BKN012
EDSB
32.3nm N
TAF EDSB 251700Z 2518/2618 VRB03KT 9999 BKN030 BECMG 2522/2602 4000 BR BKN010 TEMPO 2600/2608 1200 BCFG OVC002 BECMG 2609/2612 6000 SCT015
Safelog

 

Dauntless Aviation

© 2007-2014 Dauntless Aviation, all rights reserved
Information provided via PilotNav comes from a variety of official and unofficial data sources. As errors are possible, do not use PilotNav for primary flight planning purposes. Verify any information that you receive via PilotNav with current and canonical charts and other official documents. The material in this database is subject to database copyrights held by Dauntless Aviation and may not be copied without the express permission of Dauntless Aviation - licenses for use of part of all of this data are available for purchase; enquire via the Dauntless Aviation helpdesk. A number of mechanisms and markers exist in the database to protect against and identify infringement / copyright. Automated queries against this website are stictly prohibited, and all activity is logged and analyzed.